Date String (YYYY-MM-DD hh:mm:ss) UTC,Instrument flags,Ambient pressure (hPa),Sample flow (lpm),Bypass flow (lpm),Sample temperature (°C),Ambient temperature (°C),ASC tube jacket temperature (°C),LED temperature (°C),Box temperature (°C),Sample RH (%),Span deviation,Mass concentration (μg/m³),Mass concentration (μg/m³),Mass concentration (μg/m³)
DateTimeUTC,F1_M11,P_M11,Q1_M11,Q2_M11,T1_M11,T2_M11,T3_M11,T4_M11,T5_M11,U1_M11,ZSPAN_M11,X0_M11,X2_M11,X1_M11
2022-05-19 19:00:00,,0811.4,4.99,0.00,29.3,27.4,00.0,38.2,31.1,09.7,0000.0,0008.34,0003.46,0001.89
2022-05-19 19:01:00,,0811.5,5.00,0.00,29.3,27.6,00.0,38.2,31.1,10.0,0000.0,0007.94,0003.43,0001.89
2022-05-19 19:02:00,,0811.3,5.00,0.00,29.3,27.8,00.0,38.2,31.2,10.4,0000.0,0007.95,0003.41,0001.88
2022-05-19 19:03:00,,0811.1,5.01,0.00,29.3,27.9,00.0,38.2,31.2,10.3,0000.0,0007.82,0003.38,0001.88
2022-05-19 19:04:00,,0811.1,5.00,0.00,29.3,28.1,00.0,38.2,31.2,10.0,0000.0,0007.71,0003.38,0001.89
2022-05-19 19:05:00,,0811.1,5.00,0.00,29.4,28.2,00.0,38.2,31.3,10.1,0000.0,0007.83,0003.36,0001.88
2022-05-19 19:06:00,,0811.1,4.99,0.00,29.4,28.3,00.0,38.2,31.3,10.0,0000.0,0008.32,0003.36,0001.88
2022-05-19 19:07:00,,0811.0,5.00,0.00,29.4,28.4,00.0,38.2,31.4,09.7,0000.0,0008.76,0003.35,0001.86
2022-05-19 19:08:00,,0811.0,5.00,0.00,29.5,28.5,00.0,38.3,31.4,10.0,0000.0,0008.73,0003.37,0001.85
2022-05-19 19:09:00,,0811.1,5.01,0.00,29.5,28.5,00.0,38.3,31.4,09.6,0000.0,0009.90,0003.41,0001.84
2022-05-19 19:10:00,,0811.0,5.00,0.00,29.5,27.9,00.0,38.2,31.3,09.4,0000.0,0010.40,0003.42,0001.84
2022-05-19 19:11:00,,0811.0,5.01,0.00,29.4,27.2,00.0,38.2,31.1,09.3,0000.0,0011.41,0003.52,0001.86
2022-05-19 19:12:00,,0811.0,4.99,0.00,29.4,27.1,00.0,38.1,31.0,09.3,0000.0,0012.00,0003.61,0001.88
2022-05-19 19:13:00,,0810.9,5.01,0.00,29.3,27.2,00.0,38.1,31.0,09.7,0000.0,0012.44,0003.63,0001.87
2022-05-19 19:14:00,,0810.8,5.00,0.00,29.3,27.3,00.0,38.1,31.0,09.8,0000.0,0012.77,0003.62,0001.86
2022-05-19 19:15:00,,0810.8,5.00,0.00,29.3,27.5,00.0,38.1,31.1,09.8,0000.0,0013.29,0003.63,0001.85
2022-05-19 19:16:00,,0810.9,4.99,0.00,29.3,27.7,00.0,38.1,31.1,09.4,0000.0,0013.39,0003.66,0001.87
2022-05-19 19:17:00,,0810.9,5.00,0.00,29.3,27.8,00.0,38.2,31.2,09.3,0000.0,0013.63,0003.64,0001.87
2022-05-19 19:18:00,,0810.8,5.00,0.00,29.3,28.0,00.0,38.2,31.2,09.6,0000.0,0013.26,0003.62,0001.86
2022-05-19 19:19:00,,0810.8,5.01,0.00,29.3,28.1,00.0,38.2,31.2,09.7,0000.0,0013.39,0003.63,0001.88
2022-05-19 19:20:00,,0810.8,5.00,0.00,29.4,28.3,00.0,38.2,31.3,09.7,0000.0,0013.16,0003.59,0001.90
2022-05-19 19:21:00,,0810.9,4.99,0.00,29.4,28.4,00.0,38.2,31.3,09.9,0000.0,0013.51,0003.57,0001.90
2022-05-19 19:22:00,,0810.8,4.99,0.00,29.4,28.5,00.0,38.2,31.4,09.9,0000.0,0013.03,0003.48,0001.90
2022-05-19 19:23:00,,0810.6,5.01,0.00,29.5,28.6,00.0,38.2,31.4,09.9,0000.0,0012.74,0003.40,0001.87
2022-05-19 19:24:00,,0810.5,5.00,0.00,29.5,28.2,00.0,38.2,31.3,10.0,0000.0,0012.51,0003.37,0001.87
2022-05-19 19:25:00,,0810.5,4.99,0.00,29.4,27.3,00.0,38.2,31.1,09.9,0000.0,0012.91,0003.45,0001.89
2022-05-19 19:26:00,,0810.8,5.01,0.00,29.3,27.0,00.0,38.1,31.0,10.2,0000.0,0013.64,0003.56,0001.90
2022-05-19 19:27:00,,0811.0,5.00,0.00,29.3,27.0,00.0,38.1,31.0,09.6,0000.0,0013.56,0003.55,0001.90
2022-05-19 19:28:00,,0810.9,4.99,0.00,29.3,27.2,00.0,38.1,31.0,09.3,0000.0,0013.17,0003.59,0001.90
2022-05-19 19:29:00,,0810.8,5.01,0.00,29.2,27.3,00.0,38.1,31.0,09.7,0000.0,0012.66,0003.56,0001.90
2022-05-19 19:30:00,,0810.7,5.01,0.00,29.3,27.5,00.0,38.1,31.1,09.8,0000.0,0012.64,0003.52,0001.91
2022-05-19 19:31:00,,0810.7,4.99,0.00,29.3,27.7,00.0,38.1,31.1,09.4,0000.0,0012.77,0003.53,0001.93
2022-05-19 19:32:00,,0810.3,5.01,0.00,29.3,27.9,00.0,38.1,31.2,10.0,0000.0,0011.76,0003.54,0001.95
2022-05-19 19:33:00,,0810.3,4.98,0.00,29.3,28.1,00.0,38.1,31.2,09.9,0000.0,0012.21,0003.60,0001.95
2022-05-19 19:34:00,,0810.4,5.00,0.00,29.3,28.2,00.0,38.2,31.3,09.6,0000.0,0012.65,0003.66,0001.97
2022-05-19 19:35:00,,0810.6,5.00,0.00,29.4,28.3,00.0,38.2,31.3,09.6,0000.0,0013.13,0003.72,0002.00
2022-05-19 19:36:00,,0810.6,5.00,0.00,29.4,28.4,00.0,38.2,31.3,09.4,0000.0,0013.81,0003.75,0002.02
2022-05-19 19:37:00,,0810.7,5.01,0.00,29.4,28.5,00.0,38.2,31.4,09.2,0000.0,0013.40,0003.68,0002.02
2022-05-19 19:38:00,,0810.7,5.00,0.00,29.5,28.5,00.0,38.2,31.4,09.2,0000.0,0013.51,0003.69,0002.02
2022-05-19 19:39:00,,0810.7,4.99,0.00,29.4,27.7,00.0,38.2,31.2,09.5,0000.0,0014.28,0003.66,0002.01
2022-05-19 19:40:00,,0810.6,4.99,0.00,29.3,27.1,00.0,38.1,31.0,09.8,0000.0,0014.50,0003.71,0002.02
2022-05-19 19:41:00,,0810.8,5.01,0.00,29.3,27.0,00.0,38.1,31.0,09.8,0000.0,0014.55,0003.73,0002.01
2022-05-19 19:42:00,,0810.7,5.01,0.00,29.3,27.1,00.0,38.1,31.0,09.9,0000.0,0014.32,0003.75,0002.00
2022-05-19 19:43:00,,0810.7,5.00,0.00,29.2,27.3,00.0,38.1,31.0,09.8,0000.0,0014.23,0003.71,0001.99
2022-05-19 19:44:00,,0810.7,5.00,0.00,29.2,27.5,00.0,38.1,31.1,09.5,0000.0,0013.27,0003.69,0002.00
2022-05-19 19:45:00,,0810.7,5.00,0.00,29.3,27.7,00.0,38.1,31.1,09.3,0000.0,0012.38,0003.69,0002.00
2022-05-19 19:46:00,,0810.7,5.00,0.00,29.3,27.8,00.0,38.1,31.2,09.4,0000.0,0011.81,0003.66,0002.00
2022-05-19 19:47:00,,0810.7,5.00,0.00,29.3,28.0,00.0,38.1,31.2,09.8,0000.0,0010.72,0003.59,0001.98
2022-05-19 19:48:00,,0810.6,5.00,0.00,29.3,28.2,00.0,38.1,31.2,09.7,0000.0,0010.81,0003.57,0001.98
2022-05-19 19:49:00,,0810.5,5.00,0.00,29.4,28.3,00.0,38.2,31.3,09.7,0000.0,0012.56,0003.58,0001.99
2022-05-19 19:50:00,,0810.5,5.00,0.00,29.4,28.4,00.0,38.2,31.3,09.6,0000.0,0012.63,0003.59,0002.00
2022-05-19 19:51:00,,0810.6,4.99,0.00,29.4,28.5,00.0,38.2,31.4,09.6,0000.0,0012.61,0003.59,0001.98
2022-05-19 19:52:00,,0810.6,4.99,0.00,29.5,28.4,00.0,38.2,31.4,09.5,0000.0,0012.77,0003.56,0001.97
2022-05-19 19:53:00,,0810.6,5.01,0.00,29.4,27.6,00.0,38.2,31.1,09.7,0000.0,0012.86,0003.58,0001.96
2022-05-19 19:54:00,,0810.6,5.00,0.00,29.3,27.1,00.0,38.1,31.0,09.9,0000.0,0012.79,0003.62,0001.95
2022-05-19 19:55:00,,0810.8,4.99,0.00,29.3,27.1,00.0,38.1,31.0,09.5,0000.0,0012.91,0003.63,0001.94
2022-05-19 19:56:00,,0810.9,5.01,0.00,29.2,27.2,00.0,38.1,31.0,09.9,0000.0,0013.34,0003.58,0001.92
2022-05-19 19:57:00,,0810.9,5.00,0.00,29.2,27.4,00.0,38.1,31.0,10.4,0000.0,0013.45,0003.60,0001.91
2022-05-19 19:58:00,,0810.9,4.99,0.00,29.2,27.5,00.0,38.1,31.0,10.3,0000.0,0013.66,0003.58,0001.91
2022-05-19 19:59:00,,0810.6,5.00,0.00,29.3,27.7,00.0,38.1,31.1,09.7,0000.0,0012.76,0003.55,0001.91
